FW7051 Weather Reports


Display with metric or nautical units.
time (UTC)temp
F
wind
direction
speed
MPH
gust
MPH
rain 1hr
in
rain 24hr
in
rain mn
in
humidity
%
barometer
mb
20260906132520 77 163 1.0 6.0 0.00 0.00 0.00 90 1016.7
20260906132019 77 163 1.0 6.0 0.00 0.00 0.00 91 1016.7
20260906131020 76 163 0.0 5.0 0.00 0.00 0.00 94 1016.7
20260906130523 75 163 1.0 6.0 0.00 0.00 0.00 94 1016.6
20260906130046 75 0 1.0 6.0 0.00 0.00 0.00 95 1016.6
20260906125517 74 163 0.0 2.0 0.00 0.00 0.00 96 1016.4
20260906125020 74 163 0.0 2.0 0.00 0.00 0.00 96 1016.3
20260906124542 74 0 0.0 2.0 0.00 0.00 0.00 97 1016.3
20260906124018 74 0 0.0 1.0 0.00 0.00 0.00 97 1016.2
20260906123515 73 0 0.0 2.0 0.00 0.00 0.00 97 1016.2
20260906122020 73 0 0.0 0.0 0.00 0.00 0.00 96 1016.1
20260906120523 72 0 0.0 0.0 0.00 0.00 0.00 96 1016.1
20260906120044 73 0 0.0 0.0 0.00 0.00 0.00 96 1016.1
20260906115519 73 0 0.0 0.0 0.00 0.00 0.00 96 1015.9
20260906115019 73 0 0.0 0.0 0.00 0.00 0.00 96 1015.9
20260906112018 73 0 0.0 0.0 0.00 0.00 0.00 96 1015.7
20260906111017 73 0 0.0 0.0 0.00 0.00 0.00 96 1015.7
20260906110520 73 0 0.0 0.0 0.00 0.00 0.00 96 1015.5
20260906110041 73 0 0.0 0.0 0.00 0.00 0.00 96 1015.6
20260906105517 73 0 0.0 0.0 0.00 0.00 0.00 96 1015.4
20260906105018 73 0 0.0 0.0 0.00 0.00 0.00 96 1015.3
20260906104537 73 0 0.0 0.0 0.00 0.00 0.00 96 1015.3
20260906102520 73 0 0.0 0.0 0.00 0.00 0.00 96 1015.2
20260906101017 73 192 0.0 1.0 0.00 0.00 0.00 96 1015.2
20260906100521 72 0 0.0 1.0 0.00 0.00 0.00 95 1015.0
20260906100036 72 0 0.0 2.0 0.00 0.00 0.00 95 1014.9
20260906095516 72 0 0.0 2.0 0.00 0.00 0.00 95 1014.9
20260906095018 72 0 0.0 0.0 0.00 0.00 0.00 95 1014.9
20260906094539 72 0 0.0 2.0 0.00 0.00 0.00 94 1014.9
20260906092517 72 0 0.0 0.0 0.00 0.00 0.00 94 1014.6
20260906092017 72 0 0.0 1.0 0.00 0.00 0.00 94 1014.6
20260906091538 72 0 0.0 1.0 0.00 0.00 0.00 94 1014.6
20260906091016 72 0 0.0 0.0 0.00 0.00 0.00 94 1014.7
20260906090515 72 0 0.0 0.0 0.00 0.00 0.00 94 1014.6
20260906085019 72 0 0.0 0.0 0.00 0.00 0.00 94 1014.3
20260906084018 72 0 0.0 0.0 0.00 0.00 0.00 94 1014.2
20260906083517 72 0 0.0 0.0 0.00 0.00 0.00 94 1014.2
20260906083042 72 0 0.0 0.0 0.00 0.00 0.00 93 1014.2
20260906082516 72 0 0.0 0.0 0.00 0.00 0.00 93 1014.2
20260906082017 72 0 0.0 0.0 0.00 0.00 0.00 94 1014.2
20260906081537 72 0 0.0 0.0 0.00 0.00 0.00 93 1014.2
20260906081020 72 0 0.0 0.0 0.00 0.00 0.00 93 1014.1
20260906075519 72 0 0.0 0.0 0.00 0.00 0.00 93 1014.1
20260906075018 72 0 0.0 0.0 0.00 0.00 0.00 93 1014.0
20260906074021 73 0 0.0 0.0 0.00 0.00 0.00 93 1014.0
20260906073518 73 0 0.0 0.0 0.00 0.00 0.00 93 1014.2
20260906073038 73 0 0.0 0.0 0.00 0.00 0.00 93 1014.3
20260906072518 73 0 0.0 0.0 0.00 0.00 0.00 92 1014.3
20260906072017 73 0 0.0 0.0 0.00 0.00 0.00 92 1014.3
20260906071537 73 0 0.0 0.0 0.00 0.00 0.00 92 1014.4
20260906070041 73 0 0.0 0.0 0.00 0.00 0.00 92 1014.4
20260906065524 73 0 0.0 0.0 0.00 0.00 0.00 92 1014.3
20260906065021 73 0 0.0 0.0 0.00 0.00 0.00 92 1014.4
20260906064536 73 0 0.0 0.0 0.00 0.00 0.00 92 1014.4
20260906064018 73 0 0.0 0.0 0.00 0.00 0.00 91 1014.6
20260906063521 73 0 0.0 0.0 0.00 0.00 0.00 92 1014.5
20260906061020 73 0 0.0 0.0 0.00 0.00 0.00 91 1014.6
20260906060518 73 0 0.0 0.0 0.00 0.00 0.00 91 1014.5
20260906060039 73 0 0.0 0.0 0.00 0.00 0.00 90 1014.4
20260906055517 73 0 0.0 0.0 0.00 0.00 0.00 90 1014.5
20260906055016 74 0 0.0 0.0 0.00 0.00 0.00 90 1014.5
20260906054542 74 0 0.0 0.0 0.00 0.00 0.00 90 1014.5
20260906051018 74 0 0.0 0.0 0.00 0.00 0.00 89 1014.5
20260906050519 74 0 0.0 0.0 0.00 0.00 0.00 89 1014.5
20260906050040 74 0 0.0 0.0 0.00 0.00 0.00 89 1014.4
20260906045520 74 0 0.0 0.0 0.00 0.00 0.00 89 1014.3
20260906045018 75 0 0.0 0.0 0.00 0.00 0.00 89 1014.4
20260906044537 75 0 0.0 0.0 0.00 0.00 0.00 89 1014.4
20260906044018 75 0 0.0 0.0 0.00 0.00 0.00 88 1014.3
20260906042519 75 0 0.0 0.0 0.00 0.00 0.00 88 1014.2
20260906042020 75 0 0.0 0.0 0.00 0.00 0.00 88 1014.2
20260906041549 75 0 0.0 0.0 0.00 0.00 0.00 88 1014.2
20260906041021 75 0 0.0 0.0 0.00 0.00 0.00 88 1014.2
20260906040516 75 0 0.0 0.0 0.00 0.00 0.00 88 1014.1
20260906040038 75 0 0.0 0.0 0.00 0.00 0.00 88 1014.0
20260906034023 76 0 0.0 0.0 0.00 0.00 0.00 87 1014.0
20260906033517 76 0 0.0 0.0 0.00 0.00 0.00 86 1013.9
20260906032519 76 0 0.0 0.0 0.00 0.00 0.00 86 1013.8
20260906032020 76 0 0.0 0.0 0.00 0.00 0.00 85 1013.7
20260906031541 76 0 0.0 0.0 0.00 0.00 0.00 85 1013.7
20260906031016 76 0 0.0 0.0 0.00 0.00 0.00 85 1013.8
20260906030516 76 0 0.0 0.0 0.00 0.00 0.00 85 1013.6
20260906030043 76 0 0.0 0.0 0.00 0.00 0.00 84 1013.7
20260906024020 77 0 0.0 0.0 0.00 0.00 0.00 83 1013.6
20260906023520 77 0 0.0 0.0 0.00 0.00 0.00 83 1013.6
20260906023102 77 0 0.0 0.0 0.00 0.00 0.00 83 1013.5
20260906022517 77 0 0.0 0.0 0.00 0.00 0.00 83 1013.4
20260906022017 77 0 0.0 0.0 0.00 0.00 0.00 83 1013.4
20260906021539 78 0 0.0 0.0 0.00 0.00 0.00 83 1013.2
20260906021020 78 0 0.0 0.0 0.00 0.00 0.00 83 1013.1
20260906020518 78 0 0.0 0.0 0.00 0.00 0.00 82 1013.1
20260906020035 78 0 0.0 0.0 0.00 0.00 0.00 82 1013.1
20260906014020 79 0 0.0 1.0 0.00 0.00 0.00 81 1012.8
20260906013526 79 0 0.0 2.0 0.00 0.00 0.00 80 1012.8
20260906013036 80 192 0.0 2.0 0.00 0.00 0.00 80 1012.7
20260906012516 80 0 0.0 0.0 0.00 0.00 0.00 79 1012.7
20260906010524 81 0 0.0 0.0 0.00 0.00 0.00 76 1012.4
20260906005517 82 0 0.0 0.0 0.00 0.00 0.00 75 1012.2
20260906005021 82 0 0.0 0.0 0.00 0.00 0.00 75 1012.2
20260906004545 83 0 0.0 0.0 0.00 0.00 0.00 74 1012.2
20260906004021 83 0 0.0 0.0 0.00 0.00 0.00 73 1012.2
20260906003516 83 0 0.0 0.0 0.00 0.00 0.00 73 1012.3
20260906003037 84 0 0.0 0.0 0.00 0.00 0.00 72 1012.1
20260906002018 85 0 0.0 1.0 0.00 0.00 0.00 70 1012.3
20260906001022 85 0 0.0 2.0 0.00 0.00 0.00 68 1012.5
20260906000520 86 0 0.0 2.0 0.00 0.00 0.00 68 1012.5
20260905235519 86 0 0.0 1.0 0.00 0.00 0.00 67 1012.5
20260905235022 86 0 0.0 2.0 0.00 0.00 0.00 67 1012.5
20260905234538 86 192 0.0 2.0 0.00 0.00 0.00 66 1012.6
20260905234016 86 192 0.0 2.0 0.00 0.00 0.00 64 1012.4
20260905232522 87 0 0.0 2.0 0.00 0.00 0.00 64 1012.5
20260905231020 87 192 0.0 4.0 0.00 0.00 0.00 63 1012.6
20260905230517 87 192 1.0 4.0 0.00 0.00 0.00 63 1012.4
20260905230044 87 192 0.0 2.0 0.00 0.00 0.00 64 1012.6
20260905225519 87 0 0.0 2.0 0.00 0.00 0.00 64 1012.5
20260905225018 87 0 0.0 4.0 0.00 0.00 0.00 64 1012.6
20260905224021 87 192 0.0 2.0 0.00 0.00 0.00 65 1012.9
20260905223518 87 0 0.0 4.0 0.00 0.00 0.00 66 1012.7
20260905223040 87 0 0.0 4.0 0.00 0.00 0.00 67 1012.5
20260905222517 87 192 0.0 4.0 0.00 0.00 0.00 65 1012.7
20260905222020 87 192 0.0 3.0 0.00 0.00 0.00 66 1012.8
20260905221541 88 0 0.0 2.0 0.00 0.00 0.00 68 1012.8
20260905221022 88 192 0.0 2.0 0.00 0.00 0.00 67 1012.8
20260905220520 88 0 0.0 0.0 0.00 0.00 0.00 67 1012.5
20260905220039 89 0 0.0 1.0 0.00 0.00 0.00 66 1012.6
20260905215519 89 0 0.0 1.0 0.00 0.00 0.00 65 1012.7
20260905215016 89 0 0.0 6.0 0.00 0.00 0.00 64 1012.6
20260905214538 89 0 0.0 10.0 0.00 0.00 0.00 64 1012.5
20260905213520 89 192 3.0 10.0 0.00 0.00 0.00 64 1012.5
20260905212520 89 186 2.0 8.0 0.00 0.00 0.00 66 1012.7
20260905212019 89 186 2.0 10.0 0.00 0.00 0.00 65 1012.8
20260905211020 91 186 2.0 13.0 0.00 0.00 0.00 63 1012.7
20260905210518 92 186 5.0 13.0 0.00 0.00 0.00 60 1012.6
20260905210039 94 188 6.0 17.0 0.00 0.00 0.00 57 1012.8
20260905205518 96 188 7.0 17.0 0.00 0.00 0.00 54 1012.6
20260905205017 97 243 2.0 8.0 0.00 0.00 0.00 54 1012.4
20260905202526 96 243 2.0 7.0 0.00 0.00 0.00 51 1012.7
20260905202020 95 0 1.0 8.0 0.00 0.00 0.00 52 1012.8
20260905201019 97 243 3.0 11.0 0.00 0.00 0.00 49 1012.8
20260905200520 97 244 4.0 11.0 0.00 0.00 0.00 49 1012.7
20260905195517 99 244 0.0 3.0 0.00 0.00 0.00 44 1012.7
20260905195021 100 0 0.0 5.0 0.00 0.00 0.00 45 1012.8
20260905194538 100 244 2.0 5.0 0.00 0.00 0.00 42 1012.8
20260905194019 101 244 1.0 7.0 0.00 0.00 0.00 42 1012.8
20260905193520 101 244 2.0 9.0 0.00 0.00 0.00 42 1012.9
20260905192020 100 245 2.0 8.0 0.00 0.00 0.00 43 1013.2
20260905191020 101 245 3.0 8.0 0.00 0.00 0.00 43 1013.3
20260905190517 101 245 2.0 8.0 0.00 0.00 0.00 43 1013.2
20260905185517 100 244 0.0 4.0 0.00 0.00 0.00 46 1013.4
20260905185018 98 244 1.0 4.0 0.00 0.00 0.00 51 1013.5
20260905184542 97 0 0.0 3.0 0.00 0.00 0.00 48 1013.5
20260905184019 98 0 0.0 5.0 0.00 0.00 0.00 47 1013.6
20260905183516 99 244 1.0 9.0 0.00 0.00 0.00 46 1013.6
20260905182523 100 246 3.0 8.0 0.00 0.00 0.00 45 1013.7
20260905182024 100 247 1.0 8.0 0.00 0.00 0.00 46 1013.8
20260905181539 101 247 2.0 8.0 0.00 0.00 0.00 44 1013.7
20260905181018 101 246 2.0 7.0 0.00 0.00 0.00 44 1013.8
20260905180516 100 0 1.0 4.0 0.00 0.00 0.00 46 1013.9
20260905175520 100 246 2.0 5.0 0.00 0.00 0.00 46 1014.0
20260905175020 100 246 1.0 4.0 0.00 0.00 0.00 47 1013.9
20260905174020 101 246 0.0 8.0 0.00 0.00 0.00 44 1014.0
20260905173517 102 246 2.0 8.0 0.00 0.00 0.00 46 1014.2
20260905173037 102 246 1.0 7.0 0.00 0.00 0.00 44 1014.1
20260905172516 101 246 2.0 7.0 0.00 0.00 0.00 48 1014.3
20260905172019 100 246 2.0 7.0 0.00 0.00 0.00 46 1014.2
20260905171015 100 246 1.0 7.0 0.00 0.00 0.00 46 1014.4
20260905165020 99 246 2.0 5.0 0.00 0.00 0.00 48 1014.7
20260905164018 99 0 2.0 8.0 0.00 0.00 0.00 48 1014.7
20260905163523 99 246 3.0 8.0 0.00 0.00 0.00 51 1014.8
20260905161021 98 246 1.0 4.0 0.00 0.00 0.00 53 1015.2
20260905160521 97 0 1.0 4.0 0.00 0.00 0.00 53 1015.2
20260905155519 97 246 1.0 5.0 0.00 0.00 0.00 51 1015.3
20260905155020 96 246 1.0 4.0 0.00 0.00 0.00 54 1015.3
20260905154539 96 246 1.0 3.0 0.00 0.00 0.00 53 1015.3
20260905154019 96 0 0.0 7.0 0.00 0.00 0.00 53 1015.3
20260905152518 95 246 1.0 3.0 0.00 0.00 0.00 55 1015.3
20260905152018 95 0 1.0 3.0 0.00 0.00 0.00 54 1015.3
20260905151020 94 246 1.0 3.0 0.00 0.00 0.00 58 1015.4
20260905150517 94 246 0.0 7.0 0.00 0.00 0.00 57 1015.3
20260905150039 93 246 1.0 7.0 0.00 0.00 0.00 56 1015.3
20260905145516 93 0 1.0 3.0 0.00 0.00 0.00 58 1015.3
20260905145018 92 0 0.0 4.0 0.00 0.00 0.00 59 1015.3
20260905142518 90 246 0.0 3.0 0.00 0.00 0.00 69 1015.2
20260905142017 89 246 1.0 3.0 0.00 0.00 0.00 69 1015.2
20260905141537 88 246 0.0 2.0 0.00 0.00 0.00 73 1015.3
20260905135521 85 246 0.0 2.0 0.00 0.00 0.00 79 1015.3
20260905135019 84 246 0.0 2.0 0.00 0.00 0.00 81 1015.4
20260905134020 79 0 0.0 2.0 0.00 0.00 0.00 93 1015.4